NOAA 16 DEB

Satellite information

Favourite Embed

Satellite Type and Status

DEBRISIN ORBIT

Key statistics

Satellite NOAA 16 DEB at a glance.

Uptime

9215

Days in orbit

Revolutions

≈ 14.3

Per day

Orbit

SSO

Sun Synchronous Orbit

Inclination

98.8

Latest

Satellite identification and parameters

Extended collection of information and parameters for NOAA 16 DEB.

Object identification

Identified? True

Debris? True

Object name: NOAA 16 DEB

International designator: 2000-055MJ

Object number (NORAD): 41510

Object ID (CCSDS): 41510

Country: UNITED STATES OF AMERICA (US)

Current information (Y/N): Y

RCS size: SMALL

Orbital parameters

Period: 100.825 minutes

Inclination: 98.7601 deg

SMA: 7175.834 km

Apoapsis: 815.924 km

Periapsis: 779.474 km

RAAN: 74.0649 deg

Eccentricy: 0.00253979

Argument of periapsis: 195.6783 deg

Mean anomaly: 164.3614 deg

Mean motion: 14.28216893 rev/day

Mean motion (dot): 0.00007334 rev/day2

B* drag term: 0.00294905 1/REarth

Two-line elements (TLE)

Creation date: Dec. 12, 2025, 10:14 a.m.

Reference frame: TEME

Reference center: EARTH

Epoch: Dec. 12, 2025, 4:43 a.m. UTC

TLE line 0: 0 NOAA 16 DEB

TLE line 1: 1 41510U 00055MJ 25346.19664082 .00007334 00000-0 29491-2 0 9991

TLE line 2: 2 41510 98.7601 74.0649 0025398 195.6783 164.3614 14.28216893502680

Live tracking on map

Real-time ground track for satellite NOAA 16 DEB.

In-orbit conjunctions

A list of the most updated potential collisions computed for object NOAA 16 DEB.

Target Orbit TCA Probability of collision Miss distance Type
FENGYUN 1C DEB SSO 2025-08-24 03:15:30 0.0001015147 312.0 (m) DEBRIS
DMSP 5D-2 F13 DEB SSO 2024-09-28 06:44:17 0.0001608583 587.0 (m) DEBRIS

Associated space launch

The NOAA K, L and M POES satellites begin the fifth generation of improved environmental monitoring in support of NOAA missions. The instrument payload has significant improvements and additions/deletions. The instrument changes have effected the spacecraft subsystems and data formats.

NOAA 16 DEB was lifted into orbit during the mission ‘Titan II SLV | NOAA 16’, on board a Titan II SLV space rocket.

The launch took place on Sept. 21, 2000, 10:22 a.m. from Space Launch Complex 4W.

For more information about the launch, click the button.

Launch to space Titan II SLV | NOAA 16
Titan II SLV | NOAA 16

Agency: N/A

Status: Launch Successful

Launch date: Sept. 21, 2000, 10:22 a.m. UTC

Rocket: Titan II SLV

Launch pad: Space Launch Complex 4W

Location: Vandenberg SFB, CA, USA

...

Latest news about this satellite

There are no fresh news available about this satellite. Check back as we update our databases every day.


Newsletter sign-up

Weekly statistics, charts and insights to help you stay on top of the space industry.